Weather History for Northway, AK

Change the Weather History Date:

Tuesday, November 20, 2012

  Actual Average Record
Temperature  
Mean Temperature -14 °F -  
Max Temperature -5 °F 1 °F 28 °F (1979)
Min Temperature -24 °F -15 °F -45 °F (1986)
Degree Days  
Heating Degree Days 78    
Moisture  
Dew Point -16 °F    
Average Humidity 78    
Maximum Humidity 83    
Minimum Humidity 74    
Precipitation  
Precipitation 0.00 in - - ()
Snow  
Snow 0.00 in - - ()
Snow Depth 14.00 in    
Sea Level Pressure  
Sea Level Pressure 30.09 in    
Wind  
Wind Speed 0 mph (North)    
Max Wind Speed 0 mph    
Max Gust Speed -    
Visibility 9 miles    
Events Snow    
Averages and records for this station are not official NWS values.
T = Trace of Precipitation, MM = Missing Value Source: NWS Daily Summary

Daily Weather History Graph

Daily Weather History Graph

Search for Another Location

Airport:

Trip Planner

Search our weather history database for the weather conditions in past years. The results will help you decide how hot, cold, wet, or windy it might be!

Date:

Astronomy

Nov. 20, 2012 Rise Set
Actual Time 9:03 AM AKST 3:23 PM AKST
Civil Twilight 8:04 AM AKST 4:22 PM AKST
Nautical Twilight 7:04 AM AKST 5:21 PM AKST
Astronomical Twilight 6:10 AM AKST 6:16 PM AKST
Moon 1:24 PM AKST (11/20) No Moon Set
Length of Visible Light 8h 18m
Length of Day
6h 19m
First Quarter, 53% of the Moon is Illuminated
Nov 20
First Quarter
Nov 28
Full
Dec 6
Last Quarter
Dec 12
New
Dec 19
First Quarter

Hourly Weather History & Observations

Time (AKST) Temp. Dew Point Humidity Pressure Visibility Wind Dir Wind Speed Gust Speed Precip Events Conditions
12:53 AM -8.0 °F -14.1 °F 75% 30.09 in 10.0 mi Calm Calm - 0.00 in   Overcast
1:53 AM -8.0 °F -14.1 °F 75% 30.08 in 10.0 mi Calm Calm - N/A   Overcast
2:53 AM -8.0 °F -13.0 °F 79% 30.09 in 9.0 mi Calm Calm - 0.00 in Snow Light Snow
3:53 AM -8.0 °F -13.0 °F 79% 30.08 in 9.0 mi Calm Calm - 0.00 in Snow Light Snow
4:53 AM -8.0 °F -13.0 °F 79% 30.08 in 9.0 mi Calm Calm - 0.00 in Snow Light Snow
5:53 AM -11.0 °F -16.1 °F 78% 30.09 in 9.0 mi Calm Calm - 0.00 in Snow Light Snow
6:53 AM -15.0 °F -20.0 °F 78% 30.11 in 9.0 mi Calm Calm - 0.00 in Snow Light Snow
7:53 AM -17.0 °F -22.0 °F 78% 30.11 in 9.0 mi Calm Calm - 0.00 in Snow Light Snow
8:53 AM -13.0 °F -17.0 °F 82% 30.11 in 9.0 mi Calm Calm - 0.00 in Snow Light Snow
9:53 AM -9.9 °F -15.0 °F 78% 30.10 in 10.0 mi Calm Calm - 0.00 in   Mostly Cloudy
10:53 AM -9.0 °F -14.1 °F 79% 30.10 in 10.0 mi Calm Calm - N/A   Mostly Cloudy
11:53 AM -7.1 °F -11.9 °F 79% 30.10 in 10.0 mi Calm Calm - N/A   Mostly Cloudy
12:53 PM -6.0 °F -11.0 °F 79% 30.09 in 10.0 mi Calm Calm - N/A   Mostly Cloudy
1:53 PM -5.1 °F -11.0 °F 76% 30.09 in 8.0 mi Calm Calm - 0.00 in Snow Light Snow
2:53 PM -5.1 °F -9.9 °F 80% 30.07 in 9.0 mi Calm Calm - 0.00 in Snow Light Snow
3:53 PM -6.0 °F -11.0 °F 79% 30.07 in 9.0 mi Calm Calm - 0.00 in Snow Light Snow
4:53 PM -6.0 °F -11.0 °F 79% 30.07 in 9.0 mi Calm Calm - 0.00 in Snow Light Snow
5:53 PM -6.0 °F -11.0 °F 79% 30.08 in 9.0 mi Calm Calm - 0.00 in Snow Light Snow
6:53 PM -8.0 °F -11.9 °F 83% 30.09 in 9.0 mi Calm Calm - 0.00 in Snow Light Snow
7:53 PM -9.0 °F -14.1 °F 79% 30.10 in 9.0 mi Calm Calm - 0.00 in Snow Light Snow
8:53 PM -14.1 °F -18.0 °F 82% 30.10 in 10.0 mi Calm Calm - 0.00 in   Scattered Clouds
9:53 PM -18.9 °F -24.0 °F 78% 30.11 in 10.0 mi Calm Calm - N/A   Clear
10:53 PM -22.0 °F -27.9 °F 74% 30.12 in 10.0 mi Calm Calm - N/A   Clear
11:53 PM -24.0 °F -29.0 °F 77% 30.12 in 10.0 mi Calm Calm - N/A   Scattered Clouds